TimePST,TemperatureF,Dew PointF,Humidity,Sea Level PressureIn,VisibilityMPH,Wind Direction,Wind SpeedMPH,Gust SpeedMPH,PrecipitationIn,Events,Conditions,WindDirDegrees,DateUTC
12:53 AM,72.0,48.0,43,29.91,10.0,WNW,4.6,-,N/A,,Clear,290,2012-12-08 08:53:00
1:53 AM,66.0,46.0,48,29.91,10.0,WNW,5.8,-,N/A,,Clear,300,2012-12-08 09:53:00
2:53 AM,69.1,48.0,47,29.91,10.0,NW,4.6,-,N/A,,Clear,320,2012-12-08 10:53:00
3:53 AM,66.9,46.9,49,29.90,10.0,West,10.4,-,N/A,,Clear,280,2012-12-08 11:53:00
4:53 AM,69.1,45.0,42,29.90,10.0,West,4.6,-,N/A,,Clear,260,2012-12-08 12:53:00
5:53 AM,68.0,46.0,45,29.91,10.0,WNW,8.1,-,N/A,,Clear,290,2012-12-08 13:53:00
6:53 AM,55.0,44.8,68,29.92,7.0,West,5.8,-,N/A,,Partly Cloudy,270,2012-12-08 14:53:00
7:53 AM,57.6,51.1,79,29.94,7.0,West,5.8,-,N/A,,Partly Cloudy,260,2012-12-08 15:53:00
8:53 AM,62.8,54.0,73,29.95,7.0,SE,4.6,-,N/A,,Partly Cloudy,140,2012-12-08 16:53:00
9:53 AM,62.6,55.8,78,29.97,7.0,ESE,4.6,-,N/A,,Scattered Clouds,110,2012-12-08 17:53:00
10:53 AM,63.7,56.3,77,29.96,7.0,South,5.8,-,N/A,,Scattered Clouds,190,2012-12-08 18:53:00
11:53 AM,61.7,53.4,74,29.94,7.0,South,4.6,-,N/A,,Scattered Clouds,180,2012-12-08 19:53:00
12:36 PM,66.2,55.4,68,29.94,0.2,North,6.9,-,N/A,,Overcast,350,2012-12-08 20:36:00
12:53 PM,60.8,55.4,82,29.92,2.0,NW,5.8,-,N/A,,Overcast,320,2012-12-08 20:53:00
1:53 PM,79.0,55.9,45,29.90,3.0,NW,9.2,-,N/A,,Mostly Cloudy,310,2012-12-08 21:53:00
2:00 PM,64.4,51.8,64,29.92,7.0,WNW,9.2,-,N/A,,Scattered Clouds,300,2012-12-08 22:00:00
2:53 PM,64.8,50.9,61,29.91,7.0,NW,11.5,-,N/A,,Scattered Clouds,310,2012-12-08 22:53:00
3:53 PM,64.8,50.9,61,29.91,7.0,NW,10.4,-,N/A,,Overcast,320,2012-12-08 23:53:00
4:43 PM,69.8,53.6,56,29.92,8.0,NW,10.4,-,N/A,,Overcast,320,2012-12-09 00:43:00
4:53 PM,73.9,53.1,48,29.90,7.0,NW,9.2,-,N/A,,Overcast,310,2012-12-09 00:53:00
5:20 PM,68.0,51.8,56,29.92,5.0,NW,5.8,-,N/A,,Scattered Clouds,310,2012-12-09 01:20:00
5:36 PM,64.4,51.8,64,29.92,2.5,NW,5.8,-,N/A,,Clear,310,2012-12-09 01:36:00
5:43 PM,66.2,50.0,56,29.92,4.0,NW,8.1,-,N/A,,Clear,310,2012-12-09 01:43:00
5:53 PM,66.9,48.9,52,29.91,6.0,WNW,6.9,-,N/A,,Clear,300,2012-12-09 01:53:00
6:20 PM,62.6,48.2,59,29.93,1.8,NW,6.9,-,N/A,,Clear,320,2012-12-09 02:20:00
6:24 PM,64.4,48.2,56,29.93,1.0,NW,6.9,-,N/A,,Unknown,320,2012-12-09 02:24:00
6:27 PM,64.4,48.2,56,29.93,0.5,NW,5.8,-,N/A,,Unknown,310,2012-12-09 02:27:00
6:45 PM,64.4,48.2,56,29.93,0.5,NW,6.9,-,N/A,,Unknown,320,2012-12-09 02:45:00
6:53 PM,66.0,48.0,52,29.92,0.5,NW,6.9,-,N/A,,Unknown,310,2012-12-09 02:53:00
7:13 PM,66.2,50.0,56,29.94,1.2,NW,6.9,-,N/A,,Partly Cloudy,310,2012-12-09 03:13:00
7:16 PM,66.2,50.0,56,29.94,3.0,NW,6.9,-,N/A,,Partly Cloudy,320,2012-12-09 03:16:00
7:53 PM,70.0,52.0,53,29.93,7.0,WNW,8.1,-,N/A,,Scattered Clouds,300,2012-12-09 03:53:00
8:53 PM,63.0,51.1,65,29.94,7.0,WNW,6.9,-,N/A,,Clear,290,2012-12-09 04:53:00
9:53 PM,66.9,51.1,57,29.94,8.0,West,8.1,-,N/A,,Clear,280,2012-12-09 05:53:00
10:31 PM,68.0,50.0,52,29.96,7.0,WNW,9.2,-,N/A,,Partly Cloudy,290,2012-12-09 06:31:00
10:53 PM,66.0,51.1,59,29.94,8.0,WNW,9.2,-,N/A,,Clear,290,2012-12-09 06:53:00
11:53 PM,64.0,50.0,60,29.95,8.0,West,5.8,-,N/A,,Clear,280,2012-12-09 07:53:00